Home   Weather   Szczecin   Past weeks

Flag for Poland Past Weather in Szczecin, Poland — Yesterday and Last 2 Weeks

45 °F


Feels Like: 43 °F
Forecast: 44 / 50 °F
Wind: 3 mph from East

Location: Szczecin Airport

Current Time: Oct 20, 2016 at 11:26:14 PM

Latest Report: Oct 20, 2016 at 11:00 PM

Visibility: 4 mi

Pressure: 29.95 "Hg

Humidity: 93%

Dew Point: 43 °F

Location of SzczecinLocation

Past Weather in Szczecin — Graph


Szczecin Temperature Yesterday

Maximum temperature yesterday: 52 °F (at 1:30 PM)
Minimum temperature yesterday: 45 °F (at 9:00 PM)
Average temperature yesterday: 47 °F

High & Low Weather Summary for the Past Weeks

High54 °F (Oct 7, 11:00 AM)100% (Oct 7, 10:00 PM)30.36 "Hg (Oct 7, 10:00 PM)
Low36 °F (Oct 14, 8:00 AM)62% (Oct 14, 1:30 PM)29.92 "Hg (Oct 19, 12:30 PM)
Average46 °F89%30.15 "Hg
* Reported Oct 5 10:00 PM — Oct 20 10:00 PM, Szczecin, Weather by CustomWeather, © 2016

Note: Actual official high and low records may vary slightly from our data, if they occured in-between our weather recording intervals... More about our weather records


Szczecin Weather History for the Previous 24 Hours

Scroll right to see more
Time TempWeatherWind HumidityBarometerVisibility
10:00 PM
Thu, Oct 20
45 °FPassing clouds.7 mph100%29.95 "HgN/A
9:30 PM46 °FClear.7 mph93%29.95 "Hg10 mi
9:00 PM46 °FPassing clouds.8 mph93%29.98 "Hg5 mi
8:30 PM48 °FPassing clouds.7 mph87%29.98 "Hg5 mi
8:00 PM48 °FPartly cloudy.6 mph94%29.98 "Hg5 mi
7:30 PM48 °FPassing clouds.6 mph94%29.98 "Hg4 mi
7:00 PM48 °FPartly cloudy.6 mph94%29.98 "Hg4 mi
6:30 PM48 °FLow clouds.5 mph94%29.98 "Hg5 mi
6:00 PM48 °FLow clouds.5 mph87%29.98 "Hg5 mi
5:30 PM48 °FLow clouds.7 mph87%30.01 "HgN/A
5:00 PM48 °FPartly sunny.7 mph87%29.98 "HgN/A
4:30 PM48 °FPartly sunny.9 mph87%29.98 "HgN/A
4:00 PM48 °FPartly sunny.9 mph87%29.98 "HgN/A
3:30 PM48 °FPartly sunny.6 mph87%29.98 "HgN/A
3:00 PM48 °FPartly sunny.8 mph87%30.01 "HgN/A
2:30 PM48 °FPartly sunny.12 mph87%30.01 "HgN/A
2:00 PM48 °FPartly sunny.9 mph87%30.01 "HgN/A
1:30 PM48 °FBroken clouds.10 mph87%30.01 "HgN/A
1:00 PM48 °FMore clouds than sun.8 mph94%30.01 "HgN/A
12:30 PM48 °FLow clouds.8 mph87%30.01 "HgN/A
12:00 PM46 °FMostly cloudy.8 mph93%30.01 "HgN/A
11:30 AM46 °FScattered clouds.7 mph93%30.01 "HgN/A
11:00 AM45 °FPassing clouds.8 mph93%30.01 "HgN/A
10:30 AM45 °FPassing clouds.9 mph93%30.01 "Hg5 mi
10:00 AM43 °FClear.9 mph93%30.01 "Hg5 mi
9:30 AM43 °FClear.8 mph93%30.01 "Hg5 mi
9:00 AM43 °FClear.9 mph93%30.01 "Hg5 mi
8:30 AM41 °FClear.8 mph100%29.98 "Hg5 mi
8:00 AM41 °FClear.8 mph93%29.98 "Hg4 mi
7:30 AM41 °FClear.7 mph93%29.98 "Hg4 mi
7:00 AM41 °FPassing clouds.7 mph100%29.98 "Hg4 mi
6:30 AM41 °FPassing clouds.6 mph100%29.98 "Hg4 mi
6:00 AM43 °FPartly cloudy.9 mph93%29.98 "Hg5 mi
5:30 AM43 °FPassing clouds.10 mph93%29.98 "Hg5 mi
5:00 AM43 °FPassing clouds.10 mph93%29.95 "HgN/A
4:30 AM43 °FClear.9 mph93%29.95 "Hg10 mi
4:00 AM45 °FPassing clouds.9 mph93%29.98 "HgN/A
3:30 AM45 °FClear.9 mph93%29.98 "Hg10 mi
3:00 AM45 °FPassing clouds.9 mph93%29.95 "HgN/A
2:30 AM45 °FPassing clouds.7 mph93%29.98 "HgN/A
2:00 AM45 °FPassing clouds.8 mph93%29.98 "HgN/A
1:30 AM45 °FPassing clouds.9 mph93%29.95 "Hg5 mi
1:00 AM45 °FPassing clouds.9 mph93%29.95 "Hg4 mi
12:30 AM43 °FFog.9 mph100%29.98 "Hg3 mi
12:00 AM43 °FPassing clouds.10 mph100%29.95 "Hg4 mi
11:30 PM
Wed, Oct 19
45 °FPassing clouds.7 mph93%29.95 "Hg5 mi
11:00 PM45 °FClear.9 mph100%29.95 "Hg10 mi
Weather by CustomWeather, © 2016

See weather overviewHow to use our weather pages